This demonstration page uses our WeatherBlox Daily Observations layout. Learn more.

40.92945, -100.16068

Hourly Observations for May 30, 2016

Temp ( °F °C ) Dew Point ( °F °C ) Humidity (%) Winds ( mph kmh ) Pressure ( in mb ) Visibility ( mi km ) Precip ( " mm )
12:00 am 00:00 Clear 66 19.1 52 11.1 60 60 SSW 6 9 29.97 1015 10 16.0934 N/A
12:15 am 00:15 Clear 66 19 51 10.4 58 58 S 14 22 29.97 1015 10 16.0934 N/A
12:35 am 00:35 Clear 65 18.6 51 10.5 59 59 S 15 24 29.97 1015 10 16.0934 N/A
12:55 am 00:55 Clear 65 18.5 51 10.4 59 59 S 10 17 29.97 1015 10 16.0934 N/A
1:15 am 01:15 Clear 65 18.1 51 10.4 61 61 S 13 20 29.97 1015 10 16.0934 N/A
1:35 am 01:35 Clear 64 17.7 51 10.7 64 64 S 13 20 29.97 1015 10 16.0934 N/A
1:55 am 01:55 Clear 64 17.6 51 10.7 64 64 SSW 10 17 29.97 1015 10 16.0934 N/A
2:15 am 02:15 Mostly Cloudy 64 18 51 10.5 62 62 SW 10 17 29.97 1015 10 16.0934 N/A
2:35 am 02:35 Partly Cloudy 65 18.1 50 10.2 60 60 SW 12 19 29.97 1015 10 16.0934 N/A
2:55 am 02:55 Clear 64 17.5 51 10.3 63 63 SW 9 15 29.97 1015 10 16.0934 N/A
3:15 am 03:15 Clear 62 16.9 51 10.5 66 66 SW 7 11 29.94 1014 10 16.0934 N/A
3:35 am 03:35 Clear 60 15.5 52 11 75 75 S 6 9 29.97 1015 10 16.0934 N/A
3:55 am 03:55 Clear 59 15 51 10.6 75 75 S 7 11 29.94 1014 10 16.0934 N/A
4:15 am 04:15 Clear 60 15.3 51 10.7 74 74 S 5 7 29.94 1014 10 16.0934 N/A
4:35 am 04:35 Clear 58 14.3 51 10.8 80 80 W 7 11 29.94 1014 10 16.0934 N/A
4:55 am 04:55 Clear 59 15 52 11 77 77 WSW 5 7 29.94 1014 10 16.0934 N/A
5:15 am 05:15 Clear 57 13.7 52 11 84 84 Calm 29.94 1014 10 16.0934 N/A
5:35 am 05:35 Clear 56 13.6 52 11 84 84 Calm 29.94 1014 10 16.0934 N/A
5:55 am 05:55 Clear 56 13.1 52 11 87 87 ESE 6 9 30 1016 10 16.0934 N/A
6:15 am 06:15 Sunny 59 14.8 52 11.2 79 79 SSE 10 17 29.97 1015 10 16.0934 N/A
6:35 am 06:35 Sunny 58 14.4 52 11.1 81 81 SE 6 9 29.97 1015 10 16.0934 N/A
6:55 am 06:55 Sunny 58 14.5 52 11.1 80 80 SE 5 7 29.97 1015 10 16.0934 N/A
7:15 am 07:15 Sunny 59 15 53 11.9 82 82 Calm 30 1016 10 16.0934 N/A
7:35 am 07:35 Partly Cloudy 60 15.5 54 12 80 80 Calm 30 1016 10 16.0934 N/A
7:55 am 07:55 Partly Cloudy 59 15.2 55 12.7 85 85 Calm 30 1016 10 16.0934 N/A
8:15 am 08:15 Sunny 62 16.6 53 11.8 73 73 Calm 30 1016 10 16.0934 N/A
8:35 am 08:35 Sunny 63 17.3 54 12.1 72 72 Calm 29.97 1015 10 16.0934 N/A
8:55 am 08:55 Sunny 66 18.8 55 12.6 67 67 Calm 29.94 1014 10 16.0934 N/A
9:15 am 09:15 Sunny 66 19 55 12.9 68 68 Calm 29.94 1014 10 16.0934 N/A
9:35 am 09:35 Sunny 68 19.9 56 13.3 66 66 Calm 29.91 1013 10 16.0934 N/A
9:55 am 09:55 Sunny 70 21 57 14 64 64 S 3 6 29.91 1013 10 16.0934 N/A
10:15 am 10:15 Sunny 71 21.6 57 13.8 61 61 SSW 3 6 29.91 1013 10 16.0934 N/A
10:35 am 10:35 Sunny 73 22.7 55 12.6 53 53 Calm 29.91 1013 10 16.0934 N/A
10:55 am 10:55 Sunny 75 23.9 53 11.4 46 46 SW 5 7 29.85 1011 10 16.0934 N/A
11:15 am 11:15 Sunny 76 24.2 56 13.2 50 50 SSE 7 11 29.85 1011 10 16.0934 N/A
11:35 am 11:35 Sunny 76 24.5 56 13.5 50 50 S 6 9 29.85 1011 10 16.0934 N/A
11:55 am 11:55 Sunny 76 24.7 55 12.7 47 47 SSE 9 15 29.85 1011 10 16.0934 N/A
12:15 pm 12:15 Sunny 77 24.9 56 13.5 49 49 S 12 19 29.85 1011 10 16.0934 N/A
12:35 pm 12:35 Sunny 77 25.1 56 13.1 47 47 S 13 20 29.85 1011 10 16.0934 N/A
12:55 pm 12:55 Sunny 77 25.1 56 13.1 47 47 S 14 22 29.83 1010 10 16.0934 N/A
1:15 pm 13:15 Sunny 78 25.5 56 13.4 47 47 SSE 14 22 29.83 1010 10 16.0934 N/A
1:35 pm 13:35 Sunny 78 25.6 56 13.1 46 46 SSE 12 19 29.83 1010 10 16.0934 N/A
1:55 pm 13:55 Sunny 78 25.6 55 12.8 45 45 S 14 22 29.8 1009 10 16.0934 N/A
2:15 pm 14:15 Sunny 79 26.1 58 14.4 49 49 SSE 15 24 29.77 1008 10 16.0934 N/A
2:35 pm 14:35 Sunny 79 26.1 57 13.7 46 46 S 14 22 29.77 1008 10 16.0934 N/A
2:55 pm 14:55 Sunny 79 26.3 56 13.5 45 45 S 14 22 29.77 1008 10 16.0934 N/A
3:15 pm 15:15 Sunny 80 26.8 56 13.4 44 44 S 16 26 29.74 1007 10 16.0934 N/A
3:35 pm 15:35 Sunny 81 27 55 12.9 42 42 S 21 33 29.74 1007 10 16.0934 N/A
3:55 pm 15:55 Sunny 81 27 56 13.1 42 42 S 17 28 29.74 1007 10 16.0934 N/A
4:15 pm 16:15 Sunny 81 27 55 13 42 42 S 21 33 29.74 1007 10 16.0934 N/A
4:35 pm 16:35 Sunny 81 27 56 13.6 44 44 S 15 24 29.71 1006 10 16.0934 N/A
4:55 pm 16:55 Sunny 81 27.1 56 13.2 42 42 S 17 28 29.71 1006 10 16.0934 N/A
5:15 pm 17:15 Sunny 81 27 55 12.7 41 41 S 17 28 29.68 1005 10 16.0934 N/A
5:35 pm 17:35 Sunny 81 27 54 12.3 40 40 S 20 31 29.68 1005 10 16.0934 N/A
5:55 pm 17:55 Sunny 81 27 55 12.5 41 41 S 15 24 29.68 1005 10 16.0934 N/A
6:15 pm 18:15 Sunny 81 27 54 12.3 40 40 S 17 28 29.68 1005 10 16.0934 N/A
6:35 pm 18:35 Sunny 81 27 54 12.4 40 40 S 18 30 29.68 1005 10 16.0934 N/A
6:55 pm 18:55 Sunny 79 26.1 55 12.7 43 43 S 17 28 29.68 1005 10 16.0934 N/A
7:15 pm 19:15 Sunny 78 25.4 55 12.5 45 45 S 15 24 29.68 1005 10 16.0934 N/A
7:35 pm 19:35 Sunny 77 24.8 54 12.4 46 46 S 15 24 29.71 1006 10 16.0934 N/A
7:55 pm 19:55 Sunny 76 24.4 55 12.5 48 48 S 14 22 29.68 1005 10 16.0934 N/A
8:15 pm 20:15 Sunny 75 24 56 13.2 51 51 SSE 10 17 29.71 1006 10 16.0934 N/A
8:35 pm 20:35 Sunny 74 23.5 57 14 55 55 S 13 20 29.71 1006 10 16.0934 N/A
8:55 pm 20:55 Mostly Cloudy with Nearby Thunderstorms 68 20.2 52 10.9 55 55 WNW 28 44 29.83 1010 10 16.0934 N/A
9:15 pm 21:15 Cloudy 61 16.1 56 13.1 83 83 WNW 25 41 29.88 1012 5 8.0467 0.02 0.508
9:35 pm 21:35 Cloudy with Light Rain 61 16.3 56 13.5 84 84 W 17 28 29.88 1012 10 16.0934 0.04 1.016
9:55 pm 21:55 Cloudy with Nearby Thunderstorms 61 16.1 56 13.1 83 83 W 20 31 29.94 1014 7 11.26538 0.08 2.032
10:15 pm 22:15 Cloudy 60 15.6 55 13 85 85 W 14 22 29.94 1014 5 8.0467 0.11 2.794
10:35 pm 22:35 Cloudy with Rain 60 15.6 55 13 85 85 N 14 22 29.91 1013 10 16.0934 0.16 4.064
10:55 pm 22:55 Cloudy with Light Rain 60 15.8 55 12.6 81 81 SE 7 11 29.94 1014 10 16.0934 0.17 4.318
11:15 pm 23:15 Partly Cloudy 60 15.7 54 12.4 81 81 ENE 8 13 29.91 1013 10 16.0934 N/A
11:35 pm 23:35 Clear 60 15.6 54 12.2 80 80 E 7 11 29.85 1011 10 16.0934 N/A
11:55 pm 23:55 Clear 59 15.2 54 12.2 82 82 ESE 5 7 29.85 1011 10 16.0934 N/A

Powered by AerisWeather